Location: ?????????
(54.7630°N, 39.4991°E)
Time: 02:32:28
(UTC+00:00)

Cosmos 332 Rocket - Pass Details

Date: 14 April 2026
Orbit: 672 x 692 km, 74.0° (Epoch: 20 May)

Event Time Altitude Azimuth Distance (km) Brightness Sun altitude
Rises 21:04:49 0° 333° (NNW) 3,076 8.2 -25.5°
Reaches altitude 10° 21:07:12 10° 338° (NNW) 2,153 7.3 -25.5°
Maximum altitude 21:11:58 56° 57° (ENE) 819 4.2 -25.5°
Enters shadow 21:12:28 53° 83° (E) 845 4.1 -25.5°
